Flag for Iran Weather past 2 weeks in Esfahãn, Iran

Now
66 °F

Clear.


Feels Like: 66 °F
Forecast: 74 / 102 °F
Wind: 5 mph from Northeast

Location: Esfahan

Current Time: Jul 25, 2014 at 6:48:55 AM

Latest Report: Jul 25, 2014 at 6:30 AM


Visibility: 4 mi

Pressure: 29.92 "Hg

Humidity: 22%

Dew point: 27 °F

Location of EsfahãnLocation

Historic Weather in Esfahãn — Graph

°F

Esfahãn temperature yesterday

Maximum temperature yesterday: 102 °F (at 4:00 PM)
Minimum temperature yesterday: 64 °F (at 6:30 AM)
Average temperature yesterday: 86 °F

Past Weeks' High & Low Weather Summary

 TemperatureHumidityPressure
High104 °F (Jul 12, 3:00 PM)34% (Jul 15, 6:30 AM)30.01 "Hg (Jul 15, 6:30 AM)
Low59 °F (Jul 15, 6:00 AM)4% (Jul 10, 4:00 PM)29.68 "Hg (Jul 21, 7:00 PM)
Average86 °F13%29.87 "Hg
* Reported Jul 10 5:30 AM — Jul 25 5:30 AM, Esfahãn, Weather by CustomWeather, © 2014

Note: Actual official high and low records may vary slightly from our data, if they occured in-between our weather recording intervals... More about our weather records

Advertising

Esfahãn weather history for previous 24 hours

 ConditionsComfort  
Time TempWeatherWind HumidityBarometerVisibility
5:30 AM
Jul 25
66 °FClear.5 mph22%29.92 "Hg10 mi
5:00 AM66 °FClear.7 mph22%29.89 "Hg10 mi
4:30 AM68 °FClear.No wind21%29.89 "Hg10 mi
4:00 AM68 °FClear.5 mph23%29.89 "Hg10 mi
3:30 AM68 °FClear.No wind20%29.89 "Hg10 mi
3:00 AM73 °FClear.5 mph17%29.89 "Hg10 mi
2:20 AM77 °FClear.No wind15%29.89 "Hg10 mi
2:00 AM79 °FClear.5 mph15%29.89 "Hg10 mi
1:30 AM81 °FClear.5 mph14%29.89 "Hg10 mi
1:00 AM81 °FClear.5 mph14%29.89 "Hg5 mi
12:30 AM82 °FClear.5 mph14%29.92 "Hg5 mi
12:00 AM82 °FClear.7 mph12%29.92 "Hg4 mi
11:30 PM
Jul 24
81 °FClear.7 mph13%29.92 "Hg4 mi
11:00 PM82 °FClear.9 mph12%29.89 "Hg4 mi
10:30 PM82 °FClear.9 mph12%29.89 "Hg4 mi
10:00 PM82 °FClear.9 mph12%29.89 "Hg4 mi
9:30 PM86 °FSunny.12 mph10%29.89 "Hg4 mi
8:55 PM88 °FSunny.12 mph10%29.86 "Hg4 mi
8:30 PM91 °FSunny.14 mph9%29.86 "Hg4 mi
8:00 PM93 °FSunny.12 mph9%29.86 "Hg4 mi
7:30 PM97 °FSunny.16 mph8%29.86 "Hg4 mi
7:00 PM97 °FSunny.12 mph7%29.83 "Hg4 mi
6:30 PM99 °FSunny.14 mph7%29.83 "Hg4 mi
6:00 PM100 °FSunny.16 mph6%29.83 "Hg4 mi
5:30 PM100 °FSunny.12 mph7%29.83 "Hg4 mi
5:00 PM102 °FSunny.12 mph6%29.83 "Hg4 mi
4:30 PM102 °FSunny.9 mph6%29.83 "Hg4 mi
4:00 PM102 °FSunny.7 mph7%29.83 "Hg4 mi
3:30 PM100 °FSunny.12 mph8%29.83 "Hg4 mi
3:00 PM100 °FSunny.14 mph8%29.83 "Hg4 mi
2:30 PM100 °FSunny.12 mph8%29.86 "Hg4 mi
2:00 PM100 °FSunny.9 mph8%29.86 "Hg4 mi
1:30 PM99 °FSunny.12 mph8%29.86 "Hg4 mi
1:00 PM99 °FSunny.5 mph10%29.89 "Hg4 mi
12:30 PM99 °FSunny.9 mph10%29.89 "Hg4 mi
12:00 PM97 °FSunny.7 mph12%29.89 "Hg4 mi
11:30 AM95 °FSunny.5 mph13%29.92 "Hg4 mi
11:00 AM93 °FSunny.5 mph15%29.92 "Hg4 mi
10:00 AM88 °FSunny.7 mph18%29.92 "Hg4 mi
9:30 AM86 °FSunny.7 mph20%29.92 "Hg4 mi
9:00 AM84 °FSunny.7 mph20%29.92 "Hg3 mi
8:30 AM81 °FSunny.7 mph23%29.92 "Hg2 mi
8:00 AM79 °FSunny.7 mph24%29.89 "Hg2 mi
7:30 AM73 °FClear.9 mph27%29.89 "Hg2 mi
7:00 AM70 °FClear.7 mph33%29.89 "Hg2 mi
6:30 AM64 °FClear.5 mph32%29.86 "Hg2 mi
6:00 AM66 °FClear.7 mph32%29.86 "Hg2 mi
Weather by CustomWeather, © 2014

See weather overviewHow to use our weather pages